| time (UTC) | temp F | wind direction | speed MPH | gust MPH | rain 1hr in | rain 24hr in | rain mn in | humidity % | barometer mb |
| 20260905081831 | 62 | 287 | 2.0 | 5.0 | 0.00 | 0.21 | 0.00 | 88 | 1018.6 |
| 20260905081330 | 62 | 292 | 2.0 | 6.0 | 0.00 | 0.21 | 0.00 | 89 | 1018.5 |
| 20260905080830 | 62 | 249 | 2.0 | 6.0 | 0.00 | 0.21 | 0.00 | 88 | 1018.4 |
| 20260905080330 | 62 | 314 | 2.0 | 7.0 | 0.00 | 0.21 | 0.00 | 88 | 1018.4 |
| 20260905075830 | 62 | 200 | 3.0 | 7.0 | 0.00 | 0.21 | 0.00 | 89 | 1018.3 |
| 20260905075332 | 61 | 286 | 2.0 | 7.0 | 0.00 | 0.21 | 0.00 | 89 | 1018.3 |
| 20260905074828 | 61 | 274 | 2.0 | 7.0 | 0.00 | 0.21 | 0.00 | 90 | 1018.3 |
| 20260905074607 | 61 | 235 | 2.0 | 7.0 | 0.00 | 0.21 | 0.00 | 90 | 1018.2 |
| 20260905073823 | 61 | 343 | 2.0 | 6.0 | 0.00 | 0.21 | 0.00 | 90 | 1018.1 |
| 20260905073323 | 60 | 248 | 2.0 | 6.0 | 0.00 | 0.21 | 0.00 | 91 | 1018.1 |
| 20260905072824 | 60 | 302 | 2.0 | 5.0 | 0.00 | 0.21 | 0.00 | 92 | 1018.1 |
| 20260905072323 | 60 | 304 | 2.0 | 8.0 | 0.00 | 0.21 | 0.00 | 91 | 1018.0 |
| 20260905071823 | 60 | 181 | 2.0 | 8.0 | 0.00 | 0.21 | 0.00 | 91 | 1018.0 |
| 20260905071322 | 60 | 248 | 2.0 | 6.0 | 0.00 | 0.21 | 0.00 | 92 | 1017.9 |
| 20260905070821 | 59 | 199 | 1.0 | 5.0 | 0.00 | 0.21 | 0.00 | 92 | 1017.9 |
| 20260905070321 | 59 | 332 | 1.0 | 5.0 | 0.00 | 0.21 | 0.00 | 93 | 1017.8 |
| 20260905065822 | 59 | 240 | 1.0 | 5.0 | 0.00 | 0.21 | 0.00 | 93 | 1017.8 |
| 20260905065319 | 59 | 268 | 1.0 | 4.0 | 0.00 | 0.21 | 0.00 | 93 | 1017.6 |
| 20260905064817 | 59 | 296 | 1.0 | 4.0 | 0.00 | 0.21 | 0.00 | 94 | 1017.6 |
| 20260905064317 | 59 | 286 | 1.0 | 5.0 | 0.00 | 0.21 | 0.00 | 94 | 1017.6 |
| 20260905063817 | 59 | 321 | 1.0 | 5.0 | 0.00 | 0.21 | 0.00 | 95 | 1017.5 |
| 20260905063316 | 58 | 280 | 1.0 | 3.0 | 0.00 | 0.21 | 0.00 | 95 | 1017.4 |
| 20260905062813 | 58 | 271 | 1.0 | 4.0 | 0.00 | 0.21 | 0.00 | 96 | 1017.3 |
| 20260905062312 | 58 | 281 | 1.0 | 4.0 | 0.00 | 0.21 | 0.00 | 96 | 1017.3 |
| 20260905061811 | 58 | 275 | 1.0 | 4.0 | 0.00 | 0.21 | 0.00 | 96 | 1017.3 |
| 20260905061312 | 58 | 258 | 1.0 | 4.0 | 0.00 | 0.21 | 0.00 | 96 | 1017.2 |
| 20260905061048 | 58 | 238 | 1.0 | 4.0 | 0.00 | 0.21 | 0.00 | 96 | 1017.1 |
| 20260905060303 | 58 | 274 | 1.0 | 5.0 | 0.00 | 0.21 | 0.00 | 96 | 1017.0 |
| 20260905055804 | 58 | 188 | 1.0 | 5.0 | 0.00 | 0.21 | 0.00 | 97 | 1017.0 |
| 20260905055306 | 58 | 308 | 0.0 | 2.0 | 0.00 | 0.21 | 0.00 | 97 | 1017.0 |
| 20260905054802 | 58 | 295 | 0.0 | 2.0 | 0.00 | 0.21 | 0.00 | 97 | 1016.9 |
| 20260905054302 | 58 | 219 | 0.0 | 2.0 | 0.00 | 0.21 | 0.00 | 97 | 1016.9 |
| 20260905053803 | 58 | 266 | 0.0 | 2.0 | 0.00 | 0.21 | 0.00 | 97 | 1016.8 |
| 20260905053302 | 58 | 209 | 0.0 | 4.0 | 0.00 | 0.21 | 0.00 | 97 | 1016.9 |
| 20260905052801 | 58 | 193 | 0.0 | 4.0 | 0.00 | 0.21 | 0.00 | 97 | 1016.8 |
| 20260905052542 | 58 | 234 | 0.0 | 2.0 | 0.00 | 0.21 | 0.00 | 97 | 1016.7 |
| 20260905051801 | 58 | 232 | 0.0 | 2.0 | 0.00 | 0.21 | 0.00 | 97 | 1016.7 |
| 20260905051259 | 58 | 248 | 0.0 | 3.0 | 0.00 | 0.21 | 0.00 | 97 | 1016.6 |
| 20260905050759 | 58 | 169 | 1.0 | 3.0 | 0.00 | 0.21 | 0.00 | 97 | 1016.5 |
| 20260905050308 | 58 | 241 | 1.0 | 2.0 | 0.00 | 0.21 | 0.00 | 97 | 1016.4 |
| 20260905045755 | 58 | 256 | 0.0 | 2.0 | 0.00 | 0.21 | 0.00 | 97 | 1016.2 |
| 20260905045537 | 58 | 233 | 0.0 | 2.0 | 0.00 | 0.21 | 0.00 | 97 | 1016.2 |
| 20260905044754 | 59 | 304 | 0.0 | 1.0 | 0.00 | 0.21 | 0.00 | 97 | 1016.1 |
| 20260905044255 | 59 | 273 | 0.0 | 2.0 | 0.00 | 0.21 | 0.00 | 97 | 1016.0 |
| 20260905043755 | 59 | 203 | 0.0 | 2.0 | 0.00 | 0.21 | 0.00 | 97 | 1016.0 |
| 20260905043535 | 59 | 151 | 1.0 | 3.0 | 0.00 | 0.21 | 0.00 | 97 | 1016.0 |
| 20260905042754 | 59 | 143 | 0.0 | 3.0 | 0.00 | 0.21 | 0.00 | 97 | 1015.8 |
| 20260905042255 | 59 | 320 | 0.0 | 3.0 | 0.00 | 0.21 | 0.00 | 97 | 1015.7 |
| 20260905041755 | 59 | 221 | 0.0 | 3.0 | 0.00 | 0.21 | 0.00 | 97 | 1015.7 |
| 20260905041543 | 59 | 238 | 0.0 | 2.0 | 0.00 | 0.21 | 0.00 | 97 | 1015.7 |
| 20260905040755 | 59 | 283 | 0.0 | 2.0 | 0.00 | 0.21 | 0.00 | 97 | 1015.8 |
| 20260905040255 | 59 | 242 | 0.0 | 1.0 | 0.00 | 0.21 | 0.00 | 97 | 1015.8 |
| 20260905035755 | 59 | 235 | 0.0 | 2.0 | 0.00 | 0.21 | 0.00 | 97 | 1015.6 |
| 20260905035544 | 59 | 257 | 0.0 | 3.0 | 0.00 | 0.21 | 0.00 | 98 | 1015.6 |
| 20260905034755 | 59 | 236 | 0.0 | 3.0 | 0.00 | 0.21 | 0.00 | 98 | 1015.6 |
| 20260905034255 | 59 | 269 | 0.0 | 2.0 | 0.00 | 0.21 | 0.00 | 98 | 1015.6 |
| 20260905033752 | 59 | 276 | 0.0 | 2.0 | 0.00 | 0.21 | 0.00 | 98 | 1015.6 |
| 20260905033250 | 59 | 222 | 0.0 | 2.0 | 0.00 | 0.21 | 0.00 | 98 | 1015.6 |
| 20260905032750 | 59 | 283 | 0.0 | 2.0 | 0.00 | 0.21 | 0.00 | 98 | 1015.5 |
| 20260905032252 | 59 | 247 | 0.0 | 2.0 | 0.00 | 0.21 | 0.00 | 98 | 1015.5 |
| 20260905031748 | 59 | 253 | 0.0 | 2.0 | 0.00 | 0.21 | 0.00 | 98 | 1015.5 |
| 20260905031249 | 59 | 253 | 0.0 | 2.0 | 0.00 | 0.21 | 0.00 | 98 | 1015.3 |
| 20260905030747 | 59 | 266 | 0.0 | 1.0 | 0.00 | 0.21 | 0.00 | 98 | 1015.4 |
| 20260905030543 | 58 | 248 | 0.0 | 1.0 | 0.00 | 0.21 | 0.00 | 98 | 1015.4 |
| 20260905025747 | 58 | 259 | 0.0 | 3.0 | 0.00 | 0.21 | 0.00 | 98 | 1015.5 |
| 20260905025246 | 59 | 259 | 0.0 | 3.0 | 0.00 | 0.21 | 0.00 | 98 | 1015.4 |
| 20260905024746 | 58 | 178 | 0.0 | 2.0 | 0.00 | 0.21 | 0.00 | 98 | 1015.5 |
| 20260905024247 | 58 | 224 | 0.0 | 1.0 | 0.00 | 0.21 | 0.00 | 98 | 1015.5 |
| 20260905023745 | 58 | 236 | 0.0 | 2.0 | 0.00 | 0.21 | 0.00 | 98 | 1015.4 |
| 20260905023243 | 58 | 251 | 0.0 | 2.0 | 0.00 | 0.21 | 0.00 | 98 | 1015.4 |
| 20260905022744 | 58 | 285 | 0.0 | 1.0 | 0.00 | 0.21 | 0.00 | 98 | 1015.3 |
| 20260905022241 | 57 | 256 | 0.0 | 0.0 | 0.00 | 0.21 | 0.00 | 97 | 1015.3 |
| 20260905021739 | 57 | 256 | 0.0 | 1.0 | 0.00 | 0.21 | 0.00 | 97 | 1015.3 |
| 20260905021237 | 57 | 256 | 0.0 | 1.0 | 0.00 | 0.21 | 0.00 | 97 | 1015.3 |
| 20260905020734 | 57 | 256 | 0.0 | 0.0 | 0.00 | 0.21 | 0.00 | 97 | 1015.3 |
| 20260905020521 | 57 | 256 | 0.0 | 0.0 | 0.00 | 0.21 | 0.00 | 97 | 1015.3 |
| 20260905015731 | 57 | 256 | 0.0 | 0.0 | 0.00 | 0.21 | 0.00 | 97 | 1015.2 |
| 20260905015231 | 58 | 256 | 0.0 | 0.0 | 0.00 | 0.21 | 0.00 | 97 | 1015.1 |
| 20260905014730 | 58 | 256 | 0.0 | 0.0 | 0.00 | 0.21 | 0.00 | 97 | 1014.9 |
| 20260905014225 | 58 | 256 | 0.0 | 0.0 | 0.00 | 0.21 | 0.00 | 97 | 1015.0 |
| 20260905013719 | 58 | 256 | 0.0 | 0.0 | 0.00 | 0.21 | 0.00 | 97 | 1015.0 |
| 20260905013213 | 58 | 256 | 0.0 | 0.0 | 0.00 | 0.21 | 0.00 | 97 | 1014.9 |
| 20260905012713 | 58 | 256 | 0.0 | 0.0 | 0.00 | 0.21 | 0.00 | 97 | 1015.0 |
| 20260905012439 | 58 | 256 | 0.0 | 0.0 | 0.00 | 0.21 | 0.00 | 97 | 1015.0 |
| 20260905011711 | 58 | 256 | 0.0 | 0.0 | 0.00 | 0.21 | 0.00 | 97 | 1014.9 |
| 20260905011210 | 58 | 256 | 0.0 | 0.0 | 0.00 | 0.21 | 0.00 | 97 | 1014.9 |
| 20260905010709 | 58 | 256 | 0.0 | 0.0 | 0.00 | 0.21 | 0.00 | 97 | 1015.0 |
| 20260905010206 | 58 | 256 | 0.0 | 0.0 | 0.00 | 0.21 | 0.00 | 97 | 1014.9 |
| 20260905005703 | 58 | 256 | 0.0 | 0.0 | 0.00 | 0.21 | 0.00 | 97 | 1014.9 |
| 20260905005203 | 58 | 256 | 0.0 | 0.0 | 0.00 | 0.21 | 0.00 | 96 | 1014.9 |
| 20260905004701 | 58 | 256 | 0.0 | 0.0 | 0.00 | 0.21 | 0.00 | 96 | 1014.9 |
| 20260905004159 | 58 | 256 | 0.0 | 0.0 | 0.00 | 0.21 | 0.00 | 96 | 1014.9 |
| 20260905003656 | 59 | 256 | 0.0 | 0.0 | 0.00 | 0.21 | 0.00 | 96 | 1014.9 |
| 20260905003154 | 59 | 256 | 0.0 | 0.0 | 0.00 | 0.21 | 0.00 | 96 | 1014.9 |
| 20260905002655 | 59 | 256 | 0.0 | 0.0 | 0.00 | 0.21 | 0.00 | 96 | 1014.8 |
| 20260905002154 | 59 | 256 | 0.0 | 0.0 | 0.00 | 0.21 | 0.00 | 96 | 1014.8 |
| 20260905001653 | 59 | 256 | 0.0 | 0.0 | 0.00 | 0.21 | 0.00 | 96 | 1014.8 |
| 20260905001150 | 60 | 256 | 0.0 | 0.0 | 0.00 | 0.21 | 0.00 | 96 | 1014.7 |
| 20260905000649 | 60 | 256 | 0.0 | 0.0 | 0.00 | 0.21 | 0.00 | 96 | 1014.7 |
| 20260905000148 | 60 | 256 | 0.0 | 0.0 | 0.00 | 0.21 | 0.00 | 96 | 1014.7 |
| 20260904235648 | 60 | 256 | 0.0 | 0.0 | 0.00 | 0.21 | 0.00 | 96 | 1014.7 |
| 20260904235146 | 60 | 256 | 0.0 | 1.0 | 0.00 | 0.21 | 0.00 | 96 | 1014.6 |
| 20260904234645 | 61 | 256 | 0.0 | 1.0 | 0.00 | 0.21 | 0.00 | 96 | 1014.6 |
| 20260904234208 | 61 | 256 | 0.0 | 0.0 | 0.00 | 0.21 | 0.00 | 96 | 1014.6 |
| 20260904234202 | 61 | 256 | 0.0 | 1.0 | 0.00 | 0.21 | 0.00 | 96 | 1014.6 |
| 20260904233644 | 61 | 256 | 0.0 | 0.0 | 0.00 | 0.21 | 0.00 | 96 | 1014.6 |
| 20260904232633 | 62 | 256 | 0.0 | 0.0 | 0.00 | 0.21 | 0.00 | 96 | 1014.6 |
| 20260904232132 | 62 | 256 | 0.0 | 1.0 | 0.00 | 0.21 | 0.00 | 96 | 1014.5 |
| 20260904231632 | 62 | 256 | 0.0 | 3.0 | 0.00 | 0.21 | 0.00 | 96 | 1014.5 |
| 20260904231401 | 62 | 264 | 0.0 | 3.0 | 0.00 | 0.21 | 0.00 | 96 | 1014.5 |
| 20260904230915 | 62 | 226 | 0.0 | 0.0 | 0.00 | 0.21 | 0.00 | 96 | 1014.4 |
| 20260904230130 | 62 | 226 | 0.0 | 0.0 | 0.00 | 0.21 | 0.00 | 96 | 1014.3 |
| 20260904225631 | 63 | 226 | 0.0 | 0.0 | 0.00 | 0.21 | 0.00 | 96 | 1014.3 |
| 20260904225129 | 63 | 226 | 0.0 | 0.0 | 0.00 | 0.21 | 0.00 | 96 | 1014.3 |
| 20260904224630 | 63 | 226 | 0.0 | 0.0 | 0.00 | 0.21 | 0.00 | 96 | 1014.2 |
| 20260904224129 | 63 | 226 | 0.0 | 0.0 | 0.00 | 0.21 | 0.00 | 96 | 1014.1 |
| 20260904223630 | 63 | 226 | 0.0 | 1.0 | 0.00 | 0.21 | 0.00 | 96 | 1014.0 |
| 20260904223130 | 64 | 226 | 0.0 | 2.0 | 0.00 | 0.21 | 0.00 | 96 | 1014.0 |
| 20260904222628 | 64 | 236 | 0.0 | 3.0 | 0.00 | 0.21 | 0.00 | 96 | 1014.0 |
| 20260904222124 | 64 | 298 | 0.0 | 5.0 | 0.00 | 0.21 | 0.00 | 96 | 1014.0 |
| 20260904221624 | 64 | 284 | 0.0 | 5.0 | 0.00 | 0.21 | 0.00 | 96 | 1014.1 |
| 20260904221124 | 64 | 316 | 0.0 | 2.0 | 0.00 | 0.21 | 0.00 | 96 | 1013.8 |
| 20260904220624 | 64 | 316 | 0.0 | 2.0 | 0.00 | 0.21 | 0.00 | 97 | 1013.8 |
| 20260904220122 | 64 | 313 | 0.0 | 2.0 | 0.00 | 0.21 | 0.00 | 97 | 1013.8 |
| 20260904215621 | 64 | 203 | 0.0 | 2.0 | 0.00 | 0.21 | 0.21 | 97 | 1013.7 |
| 20260904215121 | 64 | 225 | 0.0 | 2.0 | 0.00 | 0.21 | 0.21 | 97 | 1013.7 |
| 20260904214621 | 64 | 318 | 0.0 | 2.0 | 0.00 | 0.21 | 0.21 | 97 | 1013.6 |
| 20260904214120 | 64 | 229 | 0.0 | 2.0 | 0.00 | 0.21 | 0.21 | 97 | 1013.6 |
| 20260904213618 | 64 | 248 | 0.0 | 2.0 | 0.00 | 0.21 | 0.21 | 97 | 1013.7 |
| 20260904213120 | 64 | 301 | 0.0 | 1.0 | 0.00 | 0.21 | 0.21 | 97 | 1013.7 |
| 20260904212621 | 64 | 285 | 0.0 | 3.0 | 0.00 | 0.21 | 0.21 | 97 | 1013.5 |
| 20260904212117 | 64 | 285 | 1.0 | 3.0 | 0.00 | 0.21 | 0.21 | 97 | 1013.5 |
| 20260904211617 | 64 | 161 | 1.0 | 4.0 | 0.00 | 0.21 | 0.21 | 97 | 1013.4 |
| 20260904211118 | 64 | 268 | 1.0 | 4.0 | 0.00 | 0.21 | 0.21 | 97 | 1013.4 |
| 20260904210845 | 64 | 248 | 0.0 | 2.0 | 0.00 | 0.21 | 0.21 | 97 | 1013.2 |
| 20260904210115 | 64 | 265 | 0.0 | 2.0 | 0.00 | 0.21 | 0.21 | 97 | 1013.2 |
| 20260904205615 | 64 | 193 | 1.0 | 3.0 | 0.00 | 0.21 | 0.21 | 97 | 1013.3 |
| 20260904205115 | 64 | 304 | 1.0 | 4.0 | 0.00 | 0.21 | 0.21 | 97 | 1013.3 |
| 20260904204615 | 64 | 324 | 1.0 | 4.0 | 0.00 | 0.21 | 0.21 | 97 | 1013.3 |
| 20260904204116 | 64 | 217 | 0.0 | 3.0 | 0.00 | 0.21 | 0.21 | 97 | 1013.2 |
| 20260904203847 | 64 | 240 | 0.0 | 3.0 | 0.00 | 0.21 | 0.21 | 97 | 1013.2 |
| 20260904203344 | 64 | 243 | 0.0 | 3.0 | 0.00 | 0.21 | 0.21 | 97 | 1013.0 |
| 20260904202614 | 64 | 262 | 0.0 | 3.0 | 0.00 | 0.21 | 0.21 | 97 | 1012.9 |
| 20260904202115 | 65 | 195 | 0.0 | 2.0 | 0.00 | 0.21 | 0.21 | 97 | 1012.7 |
| 20260904201840 | 65 | 272 | 0.0 | 3.0 | 0.00 | 0.21 | 0.21 | 97 | 1012.7 |
| 20260904201115 | 65 | 250 | 1.0 | 3.0 | 0.00 | 0.21 | 0.21 | 97 | 1012.9 |
| 20260904200613 | 65 | 267 | 1.0 | 2.0 | 0.00 | 0.21 | 0.21 | 97 | 1013.0 |
| 20260904200119 | 65 | 169 | 1.0 | 2.0 | 0.00 | 0.21 | 0.21 | 97 | 1013.1 |
| 20260904195616 | 65 | 288 | 0.0 | 2.0 | 0.00 | 0.21 | 0.21 | 97 | 1013.0 |
| 20260904195337 | 65 | 312 | 0.0 | 1.0 | 0.00 | 0.21 | 0.21 | 97 | 1012.9 |
| 20260904194611 | 65 | 312 | 0.0 | 2.0 | 0.00 | 0.21 | 0.21 | 97 | 1012.8 |
| 20260904194111 | 64 | 312 | 0.0 | 2.0 | 0.00 | 0.21 | 0.21 | 97 | 1012.7 |
| 20260904193610 | 64 | 312 | 0.0 | 4.0 | 0.00 | 0.21 | 0.21 | 97 | 1012.6 |
| 20260904193127 | 64 | 303 | 0.0 | 2.0 | 0.00 | 0.21 | 0.21 | 97 | 1012.4 |
| 20260904193123 | 64 | 311 | 0.0 | 4.0 | 0.00 | 0.21 | 0.21 | 97 | 1012.6 |
| 20260904192109 | 64 | 276 | 0.0 | 4.0 | 0.00 | 0.21 | 0.21 | 97 | 1012.3 |
| 20260904191609 | 64 | 224 | 0.0 | 4.0 | 0.00 | 0.21 | 0.21 | 97 | 1012.4 |
| 20260904191328 | 64 | 310 | 0.0 | 2.0 | 0.00 | 0.21 | 0.21 | 97 | 1012.4 |
| 20260904190606 | 64 | 295 | 1.0 | 3.0 | 0.00 | 0.21 | 0.21 | 97 | 1012.4 |
| 20260904190140 | 64 | 316 | 1.0 | 4.0 | 0.00 | 0.21 | 0.21 | 96 | 1012.4 |
| 20260904190133 | 64 | 295 | 1.0 | 4.0 | 0.00 | 0.21 | 0.21 | 97 | 1012.3 |
| 20260904185105 | 64 | 259 | 1.0 | 3.0 | 0.00 | 0.21 | 0.21 | 96 | 1012.3 |
| 20260904184605 | 64 | 311 | 1.0 | 4.0 | 0.00 | 0.21 | 0.21 | 97 | 1012.2 |
| 20260904184105 | 64 | 251 | 1.0 | 4.0 | 0.00 | 0.21 | 0.21 | 96 | 1012.0 |
| 20260904183603 | 64 | 259 | 1.0 | 4.0 | 0.00 | 0.21 | 0.21 | 96 | 1011.8 |
| 20260904183103 | 64 | 233 | 1.0 | 5.0 | 0.00 | 0.21 | 0.21 | 96 | 1011.7 |
| 20260904182627 | 64 | 293 | 1.0 | 5.0 | 0.00 | 0.21 | 0.21 | 96 | 1011.7 |
| 20260904182622 | 64 | 277 | 1.0 | 5.0 | 0.00 | 0.21 | 0.21 | 96 | 1011.8 |
| 20260904181834 | 64 | 1 | 1.0 | 5.0 | 0.00 | 0.21 | 0.21 | 96 | 1011.7 |
| 20260904181051 | 64 | 270 | 1.0 | 5.0 | 0.00 | 0.21 | 0.21 | 96 | 1011.6 |
| 20260904180544 | 64 | 359 | 1.0 | 5.0 | 0.00 | 0.21 | 0.21 | 96 | 1011.4 |
| 20260904180041 | 64 | 273 | 1.0 | 4.0 | 0.01 | 0.21 | 0.21 | 96 | 1011.4 |
| 20260904175541 | 64 | 303 | 1.0 | 7.0 | 0.01 | 0.21 | 0.21 | 96 | 1011.3 |
| 20260904175041 | 64 | 234 | 1.0 | 7.0 | 0.01 | 0.21 | 0.21 | 96 | 1011.3 |
| 20260904174821 | 64 | 295 | 1.0 | 4.0 | 0.01 | 0.21 | 0.21 | 95 | 1011.4 |
| 20260904174041 | 64 | 202 | 1.0 | 4.0 | 0.01 | 0.21 | 0.21 | 95 | 1011.3 |
| 20260904173539 | 64 | 285 | 2.0 | 6.0 | 0.01 | 0.21 | 0.21 | 95 | 1011.4 |
| 20260904173037 | 64 | 243 | 1.0 | 6.0 | 0.01 | 0.21 | 0.21 | 95 | 1011.3 |
| 20260904172535 | 64 | 245 | 1.0 | 5.0 | 0.02 | 0.21 | 0.21 | 95 | 1011.2 |
| 20260904172035 | 64 | 286 | 1.0 | 5.0 | 0.02 | 0.21 | 0.21 | 95 | 1011.2 |
| 20260904171534 | 64 | 312 | 2.0 | 6.0 | 0.02 | 0.21 | 0.21 | 95 | 1011.0 |
| 20260904171031 | 64 | 273 | 2.0 | 10.0 | 0.02 | 0.21 | 0.21 | 95 | 1011.0 |
| 20260904170530 | 64 | 244 | 2.0 | 10.0 | 0.02 | 0.21 | 0.21 | 95 | 1011.1 |
| 20260904170031 | 64 | 300 | 2.0 | 7.0 | 0.02 | 0.20 | 0.20 | 95 | 1011.2 |
| 20260904165531 | 64 | 248 | 2.0 | 5.0 | 0.03 | 0.20 | 0.20 | 95 | 1011.2 |
| 20260904165030 | 64 | 257 | 2.0 | 7.0 | 0.04 | 0.20 | 0.20 | 95 | 1011.0 |
| 20260904164532 | 64 | 305 | 2.0 | 8.0 | 0.06 | 0.20 | 0.20 | 95 | 1011.1 |
| 20260904164033 | 64 | 311 | 2.0 | 8.0 | 0.10 | 0.20 | 0.20 | 94 | 1011.1 |
| 20260904163532 | 64 | 286 | 1.0 | 6.0 | 0.14 | 0.20 | 0.20 | 94 | 1011.1 |
| 20260904163032 | 64 | 28 | 1.0 | 5.0 | 0.17 | 0.20 | 0.20 | 94 | 1010.8 |
| 20260904162538 | 64 | 306 | 2.0 | 5.0 | 0.17 | 0.20 | 0.20 | 93 | 1010.8 |
| 20260904162533 | 63 | 297 | 2.0 | 5.0 | 0.17 | 0.20 | 0.20 | 93 | 1010.9 |
| 20260904161523 | 64 | 20 | 2.0 | 7.0 | 0.20 | 0.20 | 0.20 | 93 | 1010.9 |
| 20260904161021 | 64 | 333 | 2.0 | 7.0 | 0.20 | 0.20 | 0.20 | 93 | 1011.0 |
| 20260904160520 | 64 | 1 | 2.0 | 8.0 | 0.19 | 0.19 | 0.18 | 93 | 1011.0 |
| 20260904160027 | 64 | 46 | 2.0 | 8.0 | 0.18 | 0.18 | 0.18 | 93 | 1011.0 |
| 20260904155520 | 64 | 316 | 2.0 | 6.0 | 0.17 | 0.17 | 0.17 | 93 | 1010.9 |
| 20260904155018 | 64 | 85 | 3.0 | 7.0 | 0.17 | 0.17 | 0.17 | 92 | 1010.9 |
| 20260904154521 | 65 | 11 | 3.0 | 12.0 | 0.15 | 0.15 | 0.14 | 90 | 1010.9 |
| 20260904154021 | 65 | 278 | 3.0 | 12.0 | 0.10 | 0.10 | 0.09 | 89 | 1010.8 |
| 20260904153519 | 67 | 82 | 3.0 | 8.0 | 0.06 | 0.06 | 0.05 | 88 | 1010.8 |
| 20260904153020 | 68 | 301 | 3.0 | 9.0 | 0.04 | 0.04 | 0.04 | 87 | 1010.7 |
| 20260904152521 | 69 | 34 | 3.0 | 11.0 | 0.03 | 0.03 | 0.02 | 85 | 1010.5 |
| 20260904152020 | 71 | 89 | 4.0 | 13.0 | 0.02 | 0.02 | 0.01 | 83 | 1010.4 |
| 20260904151521 | 73 | 309 | 3.0 | 13.0 | 0.00 | 0.00 | 0.00 | 80 | 1010.2 |
| 20260904151021 | 73 | 44 | 3.0 | 11.0 | 0.00 | 0.00 | 0.00 | 80 | 1009.7 |
| 20260904150518 | 73 | 25 | 3.0 | 7.0 | 0.00 | 0.00 | 0.00 | 80 | 1009.6 |
| 20260904150255 | 73 | 280 | 3.0 | 7.0 | 0.00 | 0.00 | 0.00 | 80 | 1009.6 |
| 20260904145505 | 73 | 279 | 3.0 | 11.0 | 0.00 | 0.00 | 0.00 | 80 | 1009.6 |
| 20260904145004 | 73 | 223 | 4.0 | 11.0 | 0.00 | 0.00 | 0.00 | 81 | 1009.6 |
| 20260904144505 | 73 | 300 | 4.0 | 12.0 | 0.00 | 0.00 | 0.00 | 81 | 1009.7 |
| 20260904144001 | 73 | 285 | 5.0 | 12.0 | 0.00 | 0.00 | 0.00 | 82 | 1009.7 |
| 20260904143454 | 72 | 301 | 5.0 | 13.0 | 0.00 | 0.00 | 0.00 | 82 | 1009.7 |
| 20260904142948 | 73 | 301 | 5.0 | 17.0 | 0.00 | 0.00 | 0.00 | 82 | 1009.7 |
| 20260904142720 | 73 | 309 | 5.0 | 17.0 | 0.00 | 0.00 | 0.00 | 80 | 1009.7 |
| 20260904141936 | 74 | 297 | 4.0 | 14.0 | 0.00 | 0.00 | 0.00 | 78 | 1009.5 |
| 20260904141436 | 74 | 293 | 4.0 | 10.0 | 0.00 | 0.00 | 0.00 | 76 | 1009.3 |
| 20260904141212 | 75 | 262 | 4.0 | 12.0 | 0.00 | 0.00 | 0.00 | 77 | 1009.4 |
| 20260904140436 | 75 | 146 | 5.0 | 12.0 | 0.00 | 0.00 | 0.00 | 76 | 1009.5 |
| 20260904140221 | 75 | 338 | 5.0 | 11.0 | 0.00 | 0.00 | 0.00 | 75 | 1009.7 |
| 20260904135436 | 75 | 274 | 5.0 | 16.0 | 0.00 | 0.00 | 0.00 | 75 | 1009.7 |
| 20260904135220 | 75 | 186 | 5.0 | 16.0 | 0.00 | 0.00 | 0.00 | 76 | 1009.6 |
| 20260904134436 | 75 | 245 | 5.0 | 14.0 | 0.00 | 0.00 | 0.00 | 76 | 1009.6 |
| 20260904133934 | 75 | 302 | 4.0 | 14.0 | 0.00 | 0.00 | 0.00 | 75 | 1009.6 |
| 20260904133721 | 75 | 358 | 3.0 | 11.0 | 0.00 | 0.00 | 0.00 | 75 | 1009.5 |
| 20260904133214 | 76 | 149 | 3.0 | 10.0 | 0.00 | 0.00 | 0.00 | 75 | 1009.4 |
| 20260904132432 | 75 | 53 | 4.0 | 11.0 | 0.00 | 0.00 | 0.00 | 76 | 1009.5 |
| 20260904131932 | 75 | 270 | 5.0 | 12.0 | 0.00 | 0.00 | 0.00 | 76 | 1009.5 |
| 20260904131432 | 75 | 309 | 4.0 | 16.0 | 0.00 | 0.00 | 0.00 | 76 | 1009.5 |
| 20260904130930 | 75 | 314 | 4.0 | 14.0 | 0.00 | 0.00 | 0.00 | 76 | 1009.6 |
| 20260904130430 | 75 | 245 | 4.0 | 14.0 | 0.00 | 0.00 | 0.00 | 75 | 1009.4 |
| 20260904125931 | 75 | 265 | 4.0 | 8.0 | 0.00 | 0.00 | 0.00 | 75 | 1009.4 |
| 20260904125708 | 75 | 317 | 4.0 | 11.0 | 0.00 | 0.00 | 0.00 | 75 | 1009.4 |
| 20260904124931 | 75 | 25 | 4.0 | 11.0 | 0.00 | 0.00 | 0.00 | 76 | 1009.4 |
| 20260904124430 | 75 | 143 | 4.0 | 12.0 | 0.00 | 0.00 | 0.00 | 75 | 1009.4 |
| 20260904123931 | 75 | 212 | 5.0 | 12.0 | 0.00 | 0.00 | 0.00 | 75 | 1009.4 |
| 20260904123712 | 75 | 283 | 5.0 | 12.0 | 0.00 | 0.00 | 0.00 | 75 | 1009.4 |
| 20260904123211 | 75 | 287 | 3.0 | 12.0 | 0.00 | 0.00 | 0.00 | 75 | 1009.3 |
| 20260904122430 | 75 | 182 | 3.0 | 15.0 | 0.00 | 0.00 | 0.00 | 76 | 1009.3 |
| 20260904121930 | 75 | 250 | 4.0 | 15.0 | 0.00 | 0.00 | 0.00 | 75 | 1009.2 |
| 20260904121729 | 75 | 210 | 3.0 | 9.0 | 0.00 | 0.00 | 0.00 | 75 | 1009.4 |
| 20260904120930 | 75 | 281 | 4.0 | 9.0 | 0.00 | 0.00 | 0.00 | 76 | 1009.3 |
| 20260904120430 | 75 | 323 | 4.0 | 10.0 | 0.00 | 0.00 | 0.00 | 76 | 1009.3 |
| 20260904115930 | 75 | 333 | 4.0 | 12.0 | 0.00 | 0.00 | 0.00 | 75 | 1009.3 |
| 20260904115431 | 76 | 270 | 4.0 | 12.0 | 0.00 | 0.00 | 0.00 | 75 | 1009.3 |
| 20260904115214 | 76 | 354 | 4.0 | 13.0 | 0.00 | 0.00 | 0.00 | 75 | 1009.4 |
| 20260904114431 | 76 | 297 | 4.0 | 13.0 | 0.00 | 0.00 | 0.00 | 75 | 1009.4 |
| 20260904113932 | 76 | 310 | 4.0 | 13.0 | 0.00 | 0.00 | 0.00 | 74 | 1009.6 |
| 20260904113433 | 76 | 265 | 5.0 | 13.0 | 0.00 | 0.00 | 0.00 | 74 | 1009.6 |
| 20260904112932 | 75 | 290 | 4.0 | 13.0 | 0.00 | 0.00 | 0.00 | 74 | 1009.6 |
| 20260904112430 | 75 | 229 | 4.0 | 12.0 | 0.00 | 0.00 | 0.00 | 75 | 1009.7 |
| 20260904111930 | 75 | 135 | 4.0 | 12.0 | 0.00 | 0.00 | 0.00 | 74 | 1009.6 |
| 20260904111430 | 75 | 201 | 5.0 | 12.0 | 0.00 | 0.00 | 0.00 | 74 | 1009.6 |
| 20260904110930 | 75 | 293 | 4.0 | 12.0 | 0.00 | 0.00 | 0.00 | 74 | 1009.7 |
| 20260904110443 | 75 | 303 | 4.0 | 12.0 | 0.00 | 0.00 | 0.00 | 74 | 1009.7 |
| 20260904105930 | 75 | 236 | 5.0 | 15.0 | 0.00 | 0.00 | 0.00 | 74 | 1009.6 |
| 20260904105430 | 75 | 300 | 5.0 | 15.0 | 0.00 | 0.00 | 0.00 | 74 | 1009.5 |
| 20260904104931 | 76 | 159 | 5.0 | 16.0 | 0.00 | 0.00 | 0.00 | 74 | 1009.7 |
| 20260904104721 | 75 | 6 | 6.0 | 16.0 | 0.00 | 0.00 | 0.00 | 73 | 1009.6 |
| 20260904103930 | 76 | 185 | 5.0 | 16.0 | 0.00 | 0.00 | 0.00 | 74 | 1009.7 |
| 20260904103431 | 76 | 239 | 5.0 | 16.0 | 0.00 | 0.00 | 0.00 | 74 | 1009.8 |
| 20260904102929 | 75 | 70 | 5.0 | 15.0 | 0.00 | 0.00 | 0.00 | 74 | 1009.7 |
| 20260904102430 | 75 | 197 | 5.0 | 15.0 | 0.00 | 0.00 | 0.00 | 75 | 1009.7 |
| 20260904101930 | 75 | 123 | 5.0 | 15.0 | 0.00 | 0.00 | 0.00 | 74 | 1009.7 |
| 20260904101718 | 75 | 331 | 5.0 | 15.0 | 0.00 | 0.00 | 0.00 | 75 | 1009.7 |
| 20260904100931 | 74 | 250 | 4.0 | 14.0 | 0.00 | 0.00 | 0.00 | 75 | 1009.7 |
| 20260904100755 | 74 | 254 | 4.0 | 11.0 | 0.00 | 0.00 | 0.00 | 77 | 1009.8 |
| 20260904100751 | 74 | 309 | 4.0 | 13.0 | 0.00 | 0.00 | 0.00 | 78 | 1010.0 |
| 20260904100747 | 74 | 303 | 4.0 | 11.0 | 0.00 | 0.00 | 0.00 | 77 | 1009.7 |
| 20260904094930 | 74 | 210 | 5.0 | 13.0 | 0.00 | 0.00 | 0.00 | 78 | 1009.8 |
| 20260904094451 | 74 | 103 | 3.0 | 10.0 | 0.00 | 0.00 | 0.00 | 80 | 1010.0 |
| 20260904094445 | 74 | 345 | 4.0 | 12.0 | 0.00 | 0.00 | 0.00 | 78 | 1009.9 |
| 20260904093430 | 74 | 280 | 4.0 | 10.0 | 0.00 | 0.00 | 0.00 | 80 | 1009.9 |
| 20260904092930 | 73 | 282 | 5.0 | 14.0 | 0.00 | 0.00 | 0.00 | 80 | 1010.0 |
| 20260904092719 | 73 | 304 | 5.0 | 14.0 | 0.00 | 0.00 | 0.00 | 80 | 1010.1 |
| 20260904091930 | 73 | 193 | 5.0 | 15.0 | 0.00 | 0.00 | 0.00 | 81 | 1010.2 |
| 20260904091430 | 73 | 196 | 5.0 | 15.0 | 0.00 | 0.00 | 0.00 | 80 | 1010.2 |
| 20260904090931 | 73 | 323 | 4.0 | 10.0 | 0.00 | 0.00 | 0.00 | 81 | 1010.3 |
| 20260904090431 | 73 | 295 | 3.0 | 9.0 | 0.00 | 0.00 | 0.00 | 81 | 1010.3 |
| 20260904090241 | 73 | 312 | 4.0 | 12.0 | 0.00 | 0.00 | 0.00 | 81 | 1010.4 |
| 20260904085432 | 73 | 242 | 4.0 | 12.0 | 0.00 | 0.00 | 0.00 | 82 | 1010.3 |
| 20260904084932 | 73 | 334 | 4.0 | 11.0 | 0.00 | 0.00 | 0.00 | 82 | 1010.4 |
| 20260904084427 | 73 | 298 | 4.0 | 12.0 | 0.00 | 0.00 | 0.00 | 83 | 1010.4 |
| 20260904084206 | 73 | 284 | 4.0 | 12.0 | 0.00 | 0.00 | 0.00 | 83 | 1010.4 |
| 20260904083414 | 73 | 208 | 3.0 | 9.0 | 0.00 | 0.00 | 0.00 | 83 | 1010.4 |
| 20260904082908 | 73 | 302 | 3.0 | 12.0 | 0.00 | 0.00 | 0.00 | 83 | 1010.2 |
| 20260904082408 | 73 | 160 | 3.0 | 12.0 | 0.00 | 0.00 | 0.00 | 83 | 1010.3 |